• In Uzbekistan
  • List of Countries
  • For 7 days
  • Water Temperature
  • Satellite Maps
  • Weather Map
  • Weather Widgets
  • user-avatar
    Login

    Hourly Weather Santa Fe

    Today, 24 March, Friday

    Time Temperature Precipitation Wind Pressure Humidity
    00:00 +21°C° 0 mm 2 mps 758 mmHg 87%
    01:00 +21°C° 0 mm 2 mps 758 mmHg 88%
    02:00 +21°C° 0 mm 2 mps 758 mmHg 90%
    03:00 +21°C° 0 mm 1 mps 758 mmHg 90%
    04:00 +21°C° 0 mm 1 mps 758 mmHg 91%
    05:00 +21°C° 0 mm 1 mps 758 mmHg 91%
    06:00 +22°C° 0 mm 1 mps 759 mmHg 86%
    07:00 +23°C° 0 mm 1 mps 759 mmHg 82%
    08:00 +25°C° 0 mm 1 mps 759 mmHg 77%
    09:00 +26°C° 0 mm 1 mps 759 mmHg 68%
    10:00 +28°C° 0 mm 1 mps 759 mmHg 60%
    11:00 +28°C° 0 mm 0 mps 759 mmHg 52%
    12:00 +31°C° 0 mm 1 mps 758 mmHg 48%
    13:00 +31°C° 0 mm 1 mps 758 mmHg 44%
    14:00 +32°C° 0 mm 1 mps 757 mmHg 41%
    15:00 +32°C° 0 mm 2 mps 757 mmHg 42%
    16:00 +31°C° 0 mm 2 mps 756 mmHg 44%
    17:00 +31°C° 0 mm 2 mps 756 mmHg 46%
    18:00 +29°C° 0 mm 3 mps 756 mmHg 51%
    19:00 +27°C° 0 mm 3 mps 757 mmHg 57%
    20:00 +25°C° 0 mm 3 mps 757 mmHg 63%
    21:00 +25°C° 0 mm 3 mps 757 mmHg 65%
    22:00 +24°C° 0 mm 3 mps 757 mmHg 67%
    23:00 +24°C° 0 mm 3 mps 758 mmHg 69%

    Tomorrow, 25 March, Saturday

    Time Temperature Precipitation Wind Pressure Humidity
    00:00 +22°C° 0 mm 3 mps 757 mmHg 71%
    01:00 +22°C° 0 mm 3 mps 757 mmHg 72%
    02:00 +22°C° 0 mm 3 mps 757 mmHg 74%
    03:00 +21°C° 0 mm 2 mps 757 mmHg 77%
    04:00 +21°C° 0 mm 2 mps 757 mmHg 79%
    05:00 +21°C° 0 mm 2 mps 757 mmHg 82%
    06:00 +22°C° 0 mm 3 mps 757 mmHg 78%
    07:00 +24°C° 0 mm 3 mps 758 mmHg 75%
    08:00 +25°C° 0 mm 3 mps 758 mmHg 71%
    09:00 +27°C° 0 mm 3 mps 758 mmHg 63%
    10:00 +29°C° 0 mm 3 mps 758 mmHg 56%
    11:00 +31°C° 0 mm 3 mps 758 mmHg 49%
    12:00 +33°C° 0 mm 3 mps 757 mmHg 47%
    13:00 +33°C° 0 mm 3 mps 757 mmHg 44%
    14:00 +34°C° 0 mm 3 mps 756 mmHg 42%
    15:00 +33°C° 0 mm 3 mps 756 mmHg 44%
    16:00 +33°C° 0 mm 3 mps 755 mmHg 45%
    17:00 +32°C° 0 mm 4 mps 755 mmHg 47%
    18:00 +30°C° 0 mm 3 mps 755 mmHg 51%
    19:00 +28°C° 0 mm 3 mps 756 mmHg 55%
    20:00 +27°C° 0 mm 3 mps 756 mmHg 59%
    21:00 +26°C° 0 mm 4 mps 756 mmHg 63%
    22:00 +26°C° 0 mm 4 mps 757 mmHg 66%
    23:00 +25°C° 0 mm 4 mps 757 mmHg 69%

    Day after tomorrow, 26 March, Sunday

    Time Temperature Precipitation Wind Pressure Humidity
    00:00 +25°C° 0 mm 3 mps 757 mmHg 71%
    01:00 +24°C° 0 mm 3 mps 756 mmHg 73%
    02:00 +24°C° 0 mm 3 mps 756 mmHg 75%
    03:00 +22°C° 0 mm 3 mps 756 mmHg 75%
    04:00 +22°C° 0 mm 3 mps 756 mmHg 76%
    05:00 +22°C° 0 mm 3 mps 756 mmHg 76%
    06:00 +24°C° 0 mm 3 mps 757 mmHg 72%
    07:00 +25°C° 0 mm 4 mps 757 mmHg 68%
    08:00 +26°C° 0 mm 4 mps 757 mmHg 64%
    09:00 +28°C° 0 mm 4 mps 757 mmHg 58%
    10:00 +30°C° 0 mm 4 mps 757 mmHg 51%
    11:00 +33°C° 0 mm 4 mps 757 mmHg 45%
    12:00 +34°C° 0 mm 4 mps 756 mmHg 43%
    13:00 +35°C° 0 mm 4 mps 756 mmHg 40%
    14:00 +36°C° 0 mm 4 mps 755 mmHg 38%
    15:00 +35°C° 0 mm 4 mps 755 mmHg 40%
    16:00 +34°C° 0 mm 4 mps 755 mmHg 42%
    17:00 +34°C° 0 mm 3 mps 754 mmHg 44%
    18:00 +32°C° 0 mm 4 mps 755 mmHg 49%
    19:00 +29°C° 0 mm 4 mps 755 mmHg 54%
    20:00 +28°C° 0 mm 4 mps 756 mmHg 59%
    21:00 +27°C° 0 mm 4 mps 756 mmHg 61%
    22:00 +27°C° 0 mm 4 mps 757 mmHg 63%
    23:00 +26°C° 0 mm 4 mps 757 mmHg 65%

    27 March, Monday

    Time Temperature Precipitation Wind Pressure Humidity
    00:00 +25°C° 0.1 mm 3 mps 757 mmHg 66%
    01:00 +25°C° 0.1 mm 3 mps 757 mmHg 67%
    02:00 +24°C° 0.1 mm 3 mps 757 mmHg 69%
    03:00 +24°C° 0.6 mm 3 mps 757 mmHg 71%
    04:00 +24°C° 0.6 mm 3 mps 757 mmHg 72%
    05:00 +22°C° 0.6 mm 3 mps 757 mmHg 74%
    06:00 +24°C° 0 mm 3 mps 758 mmHg 72%
    07:00 +25°C° 0 mm 3 mps 758 mmHg 70%
    08:00 +26°C° 0 mm 3 mps 759 mmHg 67%
    09:00 +28°C° 0 mm 3 mps 759 mmHg 60%
    10:00 +30°C° 0 mm 3 mps 759 mmHg 53%
    11:00 +34°C° 0 mm 3 mps 759 mmHg 45%
    12:00 +35°C° 0 mm 3 mps 758 mmHg 43%
    13:00 +35°C° 0 mm 4 mps 758 mmHg 41%
    14:00 +36°C° 0 mm 4 mps 757 mmHg 38%
    15:00 +36°C° 0 mm 4 mps 757 mmHg 41%
    16:00 +35°C° 0 mm 4 mps 757 mmHg 43%
    17:00 +34°C° 0 mm 5 mps 756 mmHg 45%
    18:00 +32°C° 0.2 mm 4 mps 757 mmHg 51%
    19:00 +29°C° 0.2 mm 4 mps 758 mmHg 58%
    20:00 +28°C° 0.2 mm 4 mps 758 mmHg 64%
    21:00 +27°C° 0.1 mm 4 mps 758 mmHg 66%
    22:00 +27°C° 0.1 mm 4 mps 759 mmHg 67%
    23:00 +26°C° 0.1 mm 4 mps 759 mmHg 69%

    28 March, Tuesday

    Time Temperature Precipitation Wind Pressure Humidity
    00:00 +26°C° 0.1 mm 4 mps 759 mmHg 71%
    01:00 +26°C° 0.1 mm 4 mps 759 mmHg 72%
    02:00 +25°C° 0.1 mm 3 mps 759 mmHg 74%
    03:00 +25°C° 0.2 mm 3 mps 759 mmHg 75%
    04:00 +24°C° 0.2 mm 3 mps 759 mmHg 76%
    05:00 +24°C° 0.2 mm 3 mps 759 mmHg 77%
    06:00 +25°C° 0 mm 4 mps 760 mmHg 75%
    07:00 +25°C° 0 mm 4 mps 760 mmHg 73%
    08:00 +26°C° 0 mm 4 mps 761 mmHg 71%
    09:00 +28°C° 0 mm 4 mps 760 mmHg 64%
    10:00 +30°C° 0 mm 4 mps 760 mmHg 57%
    11:00 +33°C° 0 mm 4 mps 760 mmHg 50%
    12:00 +34°C° 0 mm 4 mps 760 mmHg 47%
    13:00 +35°C° 0 mm 5 mps 759 mmHg 44%
    14:00 +36°C° 0 mm 5 mps 758 mmHg 41%
    15:00 +35°C° 0 mm 5 mps 758 mmHg 43%
    16:00 +35°C° 0 mm 5 mps 758 mmHg 45%
    17:00 +34°C° 0 mm 5 mps 758 mmHg 47%
    18:00 +32°C° 0 mm 5 mps 758 mmHg 50%
    19:00 +30°C° 0 mm 5 mps 758 mmHg 54%
    20:00 +28°C° 0 mm 5 mps 758 mmHg 57%
    21:00 +28°C° 0 mm 5 mps 758 mmHg 58%
    22:00 +27°C° 0 mm 5 mps 758 mmHg 59%
    23:00 +27°C° 0 mm 5 mps 758 mmHg 60%

    29 March, Wednesday

    Time Temperature Precipitation Wind Pressure Humidity
    00:00 +26°C° 0 mm 5 mps 758 mmHg 63%
    01:00 +26°C° 0 mm 5 mps 758 mmHg 65%
    02:00 +25°C° 0 mm 5 mps 758 mmHg 68%
    03:00 +25°C° 0 mm 5 mps 758 mmHg 70%
    04:00 +24°C° 0 mm 6 mps 758 mmHg 71%
    05:00 +23°C° 0 mm 6 mps 758 mmHg 73%
    06:00 +23°C° 0 mm 6 mps 758 mmHg 72%
    07:00 +24°C° 0 mm 6 mps 758 mmHg 71%
    08:00 +24°C° 0 mm 7 mps 758 mmHg 70%
    09:00 +27°C° 0 mm 6 mps 758 mmHg 64%
    10:00 +28°C° 0 mm 6 mps 758 mmHg 58%
    11:00 +30°C° 0 mm 6 mps 757 mmHg 52%
    12:00 +33°C° 0 mm 6 mps 757 mmHg 49%
    13:00 +34°C° 0 mm 6 mps 756 mmHg 45%
    14:00 +35°C° 0 mm 5 mps 755 mmHg 41%
    15:00 +35°C° 0 mm 5 mps 754 mmHg 43%
    16:00 +34°C° 0 mm 5 mps 754 mmHg 44%
    17:00 +34°C° 0 mm 5 mps 754 mmHg 45%
    18:00 +33°C° 0 mm 5 mps 754 mmHg 48%
    19:00 +30°C° 0 mm 6 mps 754 mmHg 52%
    20:00 +29°C° 0 mm 6 mps 753 mmHg 55%
    21:00 +28°C° 1.7 mm 6 mps 754 mmHg 63%
    22:00 +27°C° 1.7 mm 5 mps 754 mmHg 71%
    23:00 +25°C° 1.7 mm 4 mps 754 mmHg 79%
    Show more